Weather History for FAGG - August, 2014

Change the Weather History Date:

Thursday, August 7, 2014

  Actual Average Record
Temperature  
Mean Temperature 54 °F -  
Max Temperature 63 °F 64 °F 86 °F (2003)
Min Temperature 44 °F 45 °F 41 °F (2000)
Degree Days  
Heating Degree Days 12    
Growing Degree Days 4 (Base 50)    
Moisture  
Dew Point 47 °F    
Average Humidity 74    
Maximum Humidity 88    
Minimum Humidity 55    
Precipitation  
Precipitation 0.00 in - - ()
Sea Level Pressure  
Sea Level Pressure 30.29 in    
Wind  
Wind Speed 5 mph ()    
Max Wind Speed 10 mph    
Max Gust Speed -    
Visibility 8.0 miles    
Events      
Averages and records for this station are not official NWS values.
T = Trace of Precipitation, MM = Missing Value Source: Averaged Metar Reports

Daily Weather History Graph

Daily Weather History Graph

Search for Another Location

Airport or City:

Trip Planner

Search our weather history database for the weather conditions in past years. The results will help you decide how hot, cold, wet, or windy it might be!

Date:

Astronomy

Aug. 07, 2014 Rise Set
Actual Time 7:17 AM SAST 5:54 PM SAST
Civil Twilight 6:51 AM SAST 6:21 PM SAST
Nautical Twilight 6:22 AM SAST 6:50 PM SAST
Astronomical Twilight 5:52 AM SAST 7:20 PM SAST
Moon 2:31 PM SAST (8/7) 3:51 AM SAST (8/7)
Length of Visible Light 11h 29m
Length of Day
10h 37m
Waxing Gibbous, 84% of the Moon is Illuminated
Aug 7
Waxing Gibbous
Aug 10
Full
Aug 17
Last Quarter
Aug 25
New
Sep 2
First Quarter

Hourly Weather History & Observations

Time (SAST) Temp. Windchill Dew Point Humidity Pressure Visibility Wind Dir Wind Speed Gust Speed Precip Events Conditions
2:00 AM 46 °F - 40 °F 72% 30.27 in 37 mi NW 5.8 mph - -  
4:00 AM 48.2 °F - 41.0 °F 76% 30.24 in - NNW 4.6 mph - N/A   Clear
5:00 AM 46 °F - 41 °F 78% 30.27 in 12 mi NNE 3.5 mph - -  
5:00 AM 46.4 °F 45.2 °F 41.0 °F 81% 30.24 in - North 3.5 mph - N/A   Clear
6:00 AM 46.4 °F 45.2 °F 41.0 °F 81% 30.27 in - North 3.5 mph - N/A   Clear
7:00 AM 46.4 °F 45.2 °F 42.8 °F 87% 30.27 in - North 3.5 mph - N/A   Clear
8:00 AM 47 °F - 42 °F 78% 30.32 in 12 mi NE 2.3 mph - -  
8:00 AM 48.2 °F - 42.8 °F 82% 30.30 in - North 3.5 mph - N/A   Clear
9:00 AM 55.4 °F - 48.2 °F 77% 30.33 in 6.2 mi Variable 1.2 mph - N/A   Partly Cloudy
10:00 AM 59.0 °F - 46.4 °F 63% 30.33 in 6.2 mi WNW 3.5 mph - N/A   Partly Cloudy
11:00 AM 60 °F - 48 °F 55% 30.33 in 12 mi 3.5 mph - -   Scattered Clouds
11:00 AM 60.8 °F - 48.2 °F 63% 30.33 in 6.2 mi Variable 3.5 mph - N/A   Partly Cloudy
12:00 PM 62.6 °F - 46.4 °F 55% 30.30 in 6.2 mi Variable 2.3 mph - N/A   Partly Cloudy
1:00 PM 60.8 °F - 50.0 °F 68% 30.30 in 6.2 mi South 9.2 mph - N/A   Partly Cloudy
2:00 PM 61 °F - 49 °F 56% 30.30 in 12 mi South 9.2 mph - -   Scattered Clouds
2:00 PM 60.8 °F - 50.0 °F 68% 30.27 in 6.2 mi South 9.2 mph - N/A   Partly Cloudy
3:00 PM 60.8 °F - 50.0 °F 68% 30.27 in 6.2 mi SE 10.4 mph - N/A   Partly Cloudy
4:00 PM 60.8 °F - 50.0 °F 68% 30.27 in 6.2 mi SE 10.4 mph - N/A   Partly Cloudy
5:00 PM 58 °F - 50 °F 68% 30.30 in 12 mi ESE 10.4 mph - -   Scattered Clouds
5:00 PM 59.0 °F - 50.0 °F 72% 30.27 in 6.2 mi ESE 10.4 mph - N/A   Partly Cloudy
6:00 PM 55.4 °F - 51.8 °F 88% 30.30 in 6.2 mi ESE 6.9 mph - N/A   Partly Cloudy
7:00 PM 53.6 °F - 50.0 °F 88% 30.30 in 6.2 mi East 4.6 mph - N/A   Partly Cloudy
8:00 PM 53 °F - 49 °F 84% 30.33 in 12 mi East 6.9 mph - -   Scattered Clouds
8:00 PM 53.6 °F - 50.0 °F 88% 30.30 in 6.2 mi East 6.9 mph - N/A   Partly Cloudy
11:00 PM 51.8 °F - 48.2 °F 88% 30.30 in 6.2 mi East 6.9 mph - N/A   Partly Cloudy